Jaap Van Rijn

Jaap Van Rijn

Statistiques 2026

  • Courses courues : 96
  • Nb de victoires : 24
  • Nb de places : 52
  • Écart gagnant : 8
  • Réussite à la gagne : 25%
  • Réussite à la place : 54%
Musique : 0a 4a 4a 8a 5a 0a 0a 7a 1a Da 3a 2a 1a Da 1a 3a 3a Da
DateRangCatégorieAlloc.Dist.HippodromeChevalRed. KmSpé.
28/02/26 3 Trot 3 300€ 2 100m Hol-Wolvega Petrolwiets 1'14"8 Attelé
28/02/26 1 Trot 5 000€ 2 600m Hol-Wolvega Hugo d'hertals 1'15"0 Attelé
28/02/26 2 Trot 8 800€ 1 609m Hol-Wolvega Carloforte Font 1'13"3 Attelé
23/02/26 2 Trot 21 000€ 2 700m Le Croise Laroche Katyusha 1'15"1 Attelé
22/02/26 5 Trot 52 000€ 2 700m Vincennes Marley 1'13"6 Attelé
22/02/26 6 Trot 35 000€ 2 700m Vincennes Seven Seas S 1'13"7 Attelé
21/02/26 1 Trot 3 300€ 2 100m Hol-Wolvega Utkieker 1'13"4 Attelé
21/02/26 2 Trot 2 200€ 2 100m Hol-Wolvega Jacky Barosso 1'16"7 Attelé
21/02/26 D Trot 2 200€ 2 100m Hol-Wolvega Proud Beuckenswijk Attelé
21/02/26 D Trot 4 400€ 2 100m Hol-Wolvega Obvious Gold Attelé
21/02/26 4 Trot 4 400€ 2 100m Hol-Wolvega Nirvana Fashion 1'15"9 Attelé
21/02/26 6 Trot 5 500€ 2 120m Hol-Wolvega Karina Charisma 1'17"1 Attelé
20/02/26 1 Trot 2 000€ 2 000m Ger-Gelsenkirchen Liberto 1'15"6 Attelé
20/02/26 D Trot 1 500€ 2 000m Ger-Gelsenkirchen Conway de Hasselt Attelé
20/02/26 D Trot 4 000€ 2 000m Ger-Gelsenkirchen Olympus Lobell Attelé
20/02/26 4 Trot 4 000€ 2 000m Ger-Gelsenkirchen Lochran F. Boko 1'16"4 Attelé
17/02/26 1 Trot 4 000€ 2 300m Be-Mons Modric Renka 1'11"5 Attelé
17/02/26 2 Trot 15 000€ 2 300m Be-Mons Katyusha 1'14"1 Attelé
17/02/26 1 Trot 15 000€ 2 300m Be-Mons Carloforte Font 1'12"8 Attelé
15/02/26 1 Trot 6 000€ 1 900m Ger-Gelsenkirchen Pam Beuckenswijk 1'15"7 Attelé
15/02/26 D Trot 6 000€ 1 900m Ger-Gelsenkirchen Otto Beuckenswyk Attelé
15/02/26 1 Trot 6 000€ 1 900m Ger-Gelsenkirchen Corsa's Titan 1'14"6 Attelé
14/02/26 3 Trot 4 400€ 2 100m Hol-Wolvega Petrolwiets 1'15"3 Attelé
14/02/26 5 Trot 5 000€ 2 620m Hol-Wolvega Ipalio 1'17"3 Attelé
14/02/26 8 Trot 11 000€ 2 620m Hol-Wolvega Hugo d'hertals 1'16"4 Attelé
07/02/26 0 Trot 46 000€ 2 100m Vincennes King Moko Attelé
07/02/26 1 Trot 40 000€ 2 100m Vincennes Marley 1'13"0 Attelé
05/02/26 D Trot 6 000€ 2 840m Be-Mons Nevada Lobell Attelé
04/02/26 1 Trot 2 000€ 2 000m Ger-Gelsenkirchen Liberto 1'15"3 Attelé
04/02/26 1 Trot 4 000€ 2 000m Ger-Gelsenkirchen Olympus Lobell 1'17"6 Attelé
04/02/26 D Trot 4 000€ 2 000m Ger-Gelsenkirchen Obvious Gold Attelé
03/02/26 1 Trot 2 500€ 2 300m Be-Mons Pantani Starlake 1'15"3 Attelé
03/02/26 D Trot 4 500€ 2 840m Be-Mons Love Supreme Attelé
31/01/26 5 Trot 40 000€ 2 700m Vincennes Mareno Bello 1'14"9 Attelé
27/01/26 9 Trot 35 000€ 2 700m Vincennes Utkieker 1'14"9 Attelé
24/01/26 2 Trot 3 000€ 2 600m Hol-Wolvega Merginio 1'18"9 Attelé
24/01/26 2 Trot 2 200€ 2 100m Hol-Wolvega Jacky Barosso 1'16"0 Attelé
24/01/26 D Trot 2 200€ 2 100m Hol-Wolvega Otto Beuckenswijk Attelé
24/01/26 1 Trot 3 300€ 2 100m Hol-Wolvega Oakley Vrijthout 1'15"3 Attelé
24/01/26 3 Trot 11 000€ 2 600m Hol-Wolvega Modric Renka 1'14"8 Attelé
24/01/26 D Trot 4 400€ 2 100m Hol-Wolvega Liberto Attelé
24/01/26 2 Trot 3 300€ 2 100m Hol-Wolvega Marshall V.S. 1'16"0 Attelé
24/01/26 2 Trot 5 000€ 3 100m Hol-Wolvega Love Supreme 1'17"7 Attelé
22/01/26 1 Trot 40 000€ 2 700m Vincennes Gurion Font 1'14"3 Attelé
11/01/26 6 Trot 40 000€ 2 100m Vincennes Mareno Bello 1'13"7 Attelé
05/01/26 5 Trot 41 000€ 2 100m Vincennes Modric Renka 1'12"0 Attelé lire

Longtemps au sein du peloton, en troisième épaisseur le nez au vent, est venu faire illusion à la distance, ne plafonnant que pour finir.

04/01/26 Dist Trot 46 000€ 2 700m Vincennes Force Of Nature Attelé lire

Rapidement en bonne position, a bien lutté tout au long de la phase finale , a perdu après enquête le bénéfice de la quatrième place.

01/01/26 2 Trot 5 000€ 2 000m Ger-Gelsenkirchen Utkieker 1'15"7 Attelé
01/01/26 11 Trot 5 000€ 2 000m Ger-Gelsenkirchen Lochran F. Boko 1'17"5 Attelé
01/01/26 D Trot 10 000€ 2 000m Ger-Gelsenkirchen Keep Dancing Hero Attelé